ZIYUAN 3 (ZY 3)

Last updated on Mon Sep 14 2020 05:43:38 GMT+0000 (Coordinated Universal Time)

1 38046U 12001A 20257.81513716 .00000313 00000-0 17044-4 0 9990 2 38046 97.4120 330.7035 0001727 201.2493 275.3364 15.21285804482050

Satellite not in orbit

ZIYUAN 3 (ZY 3)